Regional Weather Roundup
Issued by NWS

Home | Current Version | Previous Version | Text Only | Print | Product List | Glossary Off
Versions: 1 2 3 4 5 6 7 8 9 10 11 12 13 14 15 16 17 18 19 20 21 22 23 24 25 26 27 28 29 30 31 32 33 34 35 36 37 38 39 40 41 42 43 44 45 46 47 48 49 50

790
ASUS45 KBOU 121420
RWRCO

WEATHER ROUNDUP FOR COLORADO
NATIONAL WEATHER SERVICE DENVER/BOULDER CO
700 AM MST FRI FEB 12 2016

NOTE: "FAIR" INDICATES FEW OR NO CLOUDS BELOW 12000 FEET WITH NO
SIGNIFICANT WEATHER AND/OR OBSTRUCTIONS TO VISIBILITY.

COZ001>005-013-030-031-121500-
...NORTHWEST COLORADO...

CITY           SKY/WX    TMP DP  RH WIND       PRES   REMARKS
CRAIG          FAIR       2   0  91 CALM      30.43R
HAYDEN         FAIR      19  10  68 SE8       30.41S WCI   9
MEEKER         FAIR      15   9  76 CALM      30.42S
MOUNT WERNER   NOT AVBL
STEAMBOAT SPGS MOCLDY    16  13  86 CALM      30.43S
WALDEN         CLOUDY    32  14  47 S6        30.39F WCI  26
$$

COZ006>008-011-121500-
...WEST CENTRAL VALLEYS...

CITY           SKY/WX    TMP DP  RH WIND       PRES   REMARKS
GRAND JUNCTION FAIR      25  21  85 E8        30.44R WCI  16
MONTROSE       FAIR      24  16  71 S7        30.47R WCI  16
EAGLE          PTCLDY    12  10  92 CALM      30.51S
RIFLE          FAIR      17  11  77 CALM      30.47R
DELTA          FAIR      27  23  83 CALM      30.47R
NUCLA          FAIR      27  19  74 SE3       30.48R
$$

COZ017>023-064>068-121500-
...SOUTHWEST COLORADO...

CITY           SKY/WX    TMP DP  RH WIND       PRES   REMARKS
DURANGO        FAIR      21  16  81 N3        30.42S
CORTEZ         FAIR      19  15  84 E8        30.43R WCI   9
PAGOSA SPRINGS FAIR      20  14  78 CALM      30.44S
TELLURIDE      FAIR      33  14  45 SE8       30.50S WCI  26
WOLF CREEK PAS FAIR      32  14  47 NW5       30.59S WCI  27
$$

COZ009-010-012-014-032>034-037-058>063-121500-
...CENTRAL COLORADO...

CITY           SKY/WX    TMP DP  RH WIND       PRES   REMARKS
ASPEN          FAIR      19  12  74 S9        30.44R WCI   8
BUENA VISTA    FAIR      24  17  76 CALM      30.43R
COPPER MTN     FAIR      30  12  47 W12G18    30.52R WCI  21
BERTHOUD PASS  FAIR      23  12  63 NW41G48   30.43F WCI   3
COTTONWOOD PAS FAIR      36  12  38 E3        30.45S
GUNNISON       FAIR      -9 -17  70 CALM      30.59R
KREMMLING      FAIR      -2  -8  78 CALM      30.51R
LEADVILLE      FAIR      21  14  74 E6        30.45R WCI  13
MONARCH PASS   FAIR      25   9  50 W28       30.61R WCI   8
SALIDA         NOT AVBL
SUNLIGHT       FAIR      30  12  47 CALM        N/A
WILKERSON PASS FAIR      30  14  51 SW6       30.51R WCI  24
$$

COZ069>075-121500-
...SAN LUIS VALLEY/SANGRE DE CRISTO MOUNTAINS...

CITY           SKY/WX    TMP DP  RH WIND       PRES   REMARKS
ALAMOSA        FAIR      17  13  84 CALM      30.44S
LA VETA PASS   FAIR      32  10  40 MISG      30.45S
SAGUACHE       FAIR      27  14  59 NW3       30.47R
$$

COZ035-036-038>040-121500-
...NORTHERN COLORADO FRONT RANGE...

CITY           SKY/WX    TMP DP  RH WIND       PRES   REMARKS
DENVER INTL AP MOCLDY    33  24  69 SW7       30.27R WCI  27
DMNS CITY PARK   N/A     32  24  73 N5        30.28S WCI  28
AURORA         MOCLDY    31  25  78 NE3       30.28R
FRONT RANGE AP NOT AVBL
ERIE MUNI ARPT FAIR      28  26  93 CALM      30.30R
BOULDER MUN AP FAIR      34  27  75 SW5       30.29R WCI  30
CENTENNIAL     FAIR      33  25  72 E8        30.27R WCI  26
BROOMFIELD     MOCLDY    36  27  69 NW7       30.27S
FORT COLLINS   FAIR      34  25  69 N9        30.30R WCI  26
LONGMONT       FAIR      30  25  82 CALM      30.31R
$$

COZ041-046-047-076>085-087-088-121500-
...PIKES PEAK/PALMER DIVIDE AND SOUTHERN FOOTHILLS...

CITY           SKY/WX    TMP DP  RH WIND       PRES   REMARKS
COLO. SPRINGS  MOCLDY    34  22  61 NE6       30.32F WCI  29
A. F. ACADEMY  FAIR      27  22  81 N10       30.31F WCI  18
SCHRIEVER AFB  PTSUNNY   35  22  58 S6        30.32S WCI  30
ELLICOTT       FAIR     N/A N/A N/A CALM      30.31S
FALCON         FAIR      32  21  63 W5        30.34R WCI  28
FORT CARSON    FAIR      31  24  73 N9        30.30S WCI  23
LIMON          FAIR      18  16  92 CALM      30.31R
MONUMENT HILL  FAIR      36  21  55 SW10      30.32S
TRINIDAD       FAIR      35  21  56 W14       30.33R WCI  26
$$

COZ042>045-048>051-090-091-121500-
...NORTHEAST COLORADO...

CITY           SKY/WX    TMP DP  RH WIND       PRES   REMARKS
GREELEY ARPT   CLOUDY    28  25  86 CALM      30.30R
AKRON          FAIR      37  25  61 SW6       30.29R
BURLINGTON     FAIR      30  25  81 W8        30.31R WCI  22
WRAY           NOT AVBL
STERLING       FAIR      28  27  93 S5        30.30S WCI  23
HOLYOKE        FAIR      34  30  86 W8        30.31R WCI  27
FORT MORGAN    FAIR      31  26  82 CALM      30.31R
$$

COZ086-089-092>099-121500-
...SOUTHEAST COLORADO...

CITY           SKY/WX    TMP DP  RH WIND       PRES   REMARKS
PUEBLO         FAIR      26  21  81 CALM      30.31S
LA JUNTA       FAIR      32  25  75 W8        30.33R WCI  25
LAMAR          FAIR      25  23  92 CALM      30.32R
SPRINGFIELD      N/A     24  21  88 W7        30.33R WCI  16
$$




USA.gov is the U.S. government's official web portal to all federal, state and local government web resources and services.